Location: London
(42.9830°N, 81.2500°W)
Time: 23:42:29
(UTC-04:00)

Amateur Radio Satellites - All Passes

Search period start: 25 June 2017 23:12
Search period end: 26 June 2017 23:12
Location: London, 42.9830°N, 81.2500°W

Satellite Date Start Highest point End Downlink Frequencies (MHz)
Time Altitude Azimuth
FO-29 25 Jun 23:13:12 23:21:04 75° 103° (ESE) 23:28:50 435.910
RS-15 25 Jun 23:17:21 23:29:23 59° 314° (NW) 23:41:36 29.354- 29.394
M-CUBED/EXP-1 PRIME 25 Jun 23:17:49 23:21:32 84° 108° (ESE) 23:25:33 437.505
DELFI C3 25 Jun 23:21:56 23:24:22 16° 268° (W) 23:26:50 145.870
YUBILEINY 25 Jun 23:22:02 23:30:49 72° 280° (W) 23:39:41 435.215
PRISM 25 Jun 23:36:57 23:41:04 83° 283° (WNW) 23:45:10 437.425
PCSat 25 Jun 23:38:54 23:41:53 15° 256° (WSW) 23:44:52 145.827
TIGRISAT 25 Jun 23:48:50 23:53:30 70° 285° (WNW) 23:58:02 435.000
BEESAT 2 25 Jun 23:52:27 23:55:30 21° 317° (NW) 23:58:36 435.950
O/OREOS (USA 219) 26 Jun 00:00:00 00:02:42 15° 309° (NW) 00:05:24 437.305
AIST 2D 26 Jun 00:01:34 00:04:13 20° 94° (E) 00:06:49 435.315
SO-50 26 Jun 00:13:25 00:17:51 55° 240° (WSW) 00:22:18 436.795
ESTCUBE 1 26 Jun 00:15:10 00:19:40 71° 258° (WSW) 00:24:10 437.505/2401.250
VELOX 1 26 Jun 00:16:14 00:20:01 29° 68° (ENE) 00:23:49 145.980
EO-79 26 Jun 00:16:29 00:19:07 16° 92° (E) 00:21:43 145.935-145.965
50 SAT 26 Jun 00:24:23 00:25:56 13° 65° (ENE) 00:27:29 437.505
NO-84 26 Jun 00:25:10 00:28:37 25° 339° (NNW) 00:32:14 435.350 FM
DUCHIFAT 1 26 Jun 00:29:55 00:32:49 18° 92° (E) 00:35:42 145.980
UNISAT 6 26 Jun 00:31:41 00:35:30 25° 294° (WNW) 00:39:15 437.425
SPROUT 26 Jun 00:34:42 00:38:48 48° 72° (ENE) 00:42:57 437.525
DX 1 26 Jun 00:36:02 00:38:50 17° 63° (ENE) 00:41:38 434.975-435.025
NANOSAT C BR1 26 Jun 00:38:08 00:41:39 24° 95° (E) 00:45:07 145.865
LO-87 26 Jun 00:38:39 00:41:07 18° 267° (W) 00:43:37 145.935 - 145.965
UKube-1 26 Jun 00:52:31 00:55:19 17° 63° (ENE) 00:58:08 .
FO-29 26 Jun 00:59:08 01:05:21 27° 301° (WNW) 01:11:35 435.910
POLYITAN 1 26 Jun 01:15:36 01:19:53 71° 101° (ESE) 01:24:08 437.675
YUBILEINY 26 Jun 01:24:31 01:29:25 16° 303° (WNW) 01:34:22 435.215
QB50P2 26 Jun 01:26:27 01:30:46 81° 283° (WNW) 01:35:01 145.880/145.840
AIST 2D 26 Jun 01:34:30 01:37:22 24° 290° (WNW) 01:40:14 435.315
RS-15 26 Jun 01:35:05 01:45:18 28° 344° (NNW) 01:55:26 29.354- 29.394
BUGSAT 1 26 Jun 01:38:03 01:41:49 29° 96° (E) 01:45:31 437.445
EO-79 26 Jun 01:51:00 01:55:08 47° 288° (WNW) 01:59:12 145.935-145.965
VELOX 1 26 Jun 01:52:44 01:56:26 26° 264° (W) 02:00:10 145.980
Oscar 19 26 Jun 01:54:48 01:58:21 19° 92° (E) 02:01:54 437.125/150
50 SAT 26 Jun 01:55:13 01:58:23 38° 261° (W) 02:01:34 437.505
DUCHIFAT 1 26 Jun 02:04:39 02:08:40 41° 289° (WNW) 02:12:39 145.980
NO-84 26 Jun 02:04:40 02:07:25 16° 360° (N) 02:10:14 435.350 FM
DX 1 26 Jun 02:10:27 02:14:38 48° 260° (W) 02:18:51 434.975-435.025
SPROUT 26 Jun 02:12:25 02:14:59 15° 269° (W) 02:17:33 437.525
NANOSAT C BR1 26 Jun 02:13:36 02:17:21 30° 291° (WNW) 02:21:04 145.865
ITUPSAT 1 26 Jun 02:17:23 02:20:07 15° 60° (ENE) 02:22:53 437.325
BEESAT 26 Jun 02:26:28 02:29:45 19° 63° (ENE) 02:33:04 436.000
UKube-1 26 Jun 02:26:51 02:30:59 47° 260° (W) 02:35:09 .
Gurwin Techsat 1B 26 Jun 02:50:11 02:55:10 39° 98° (E) 03:00:06 435.225
POLYITAN 1 26 Jun 02:53:23 02:55:05 12° 299° (WNW) 02:56:46 437.675
BUGSAT 1 26 Jun 03:13:32 03:17:02 25° 293° (WNW) 03:20:30 437.445
MOZHAYETS 4 26 Jun 03:29:34 03:33:59 45° 71° (ENE) 03:38:25
Oscar 19 26 Jun 03:33:01 03:38:00 54° 289° (WNW) 03:42:59 437.125/150
NO-84 26 Jun 03:42:38 03:46:15 25° 21° (NNE) 03:49:52 435.350 FM
ITUPSAT 1 26 Jun 03:52:36 03:57:23 69° 258° (WSW) 04:02:12 437.325
RS-15 26 Jun 03:52:39 04:03:05 30° 20° (NNE) 04:13:11 29.354- 29.394
BEESAT 26 Jun 04:02:26 04:07:07 53° 260° (W) 04:11:50 436.000
AO-85 26 Jun 04:10:09 04:11:12 11° 35° (NE) 04:12:16 145.980
ITAMSAT 1 26 Jun 04:11:37 04:16:09 29° 95° (E) 04:20:37 435.822/435.867
CUBESAT XI-V 26 Jun 04:12:29 04:16:13 25° 67° (ENE) 04:19:58 437.345
AO-7 26 Jun 04:18:52 04:26:33 38° 98° (E) 04:34:09 .
Gurwin Techsat 1B 26 Jun 04:30:25 04:34:57 29° 295° (WNW) 04:39:27 435.225
KKS-1 26 Jun 04:59:55 05:04:12 51° 72° (ENE) 05:08:32 437.445
MOZHAYETS 4 26 Jun 05:08:02 05:11:20 19° 268° (W) 05:14:40
NO-84 26 Jun 05:19:57 05:24:22 87° 44° (NE) 05:28:40 435.350 FM
STARS 26 Jun 05:28:22 05:32:31 44° 71° (ENE) 05:36:42 437.465
BEESAT 3 26 Jun 05:30:29 05:33:57 27° 46° (NE) 05:37:21 437.485
AO-85 26 Jun 05:48:14 05:52:19 67° 55° (NE) 05:56:40 145.980
CUBESAT XI-V 26 Jun 05:49:10 05:53:25 35° 263° (W) 05:57:41 437.345
ITAMSAT 1 26 Jun 05:50:51 05:55:40 37° 292° (WNW) 06:00:26 435.822/435.867
RS-15 26 Jun 06:06:16 06:18:29 67° 50° (NE) 06:30:03 29.354- 29.394
AO-7 26 Jun 06:11:27 06:19:29 52° 297° (WNW) 06:27:29 .
LilacSat-2 26 Jun 06:30:10 06:31:54 13° 91° (E) 06:33:36 437.200
BEESAT 2 26 Jun 06:30:25 06:34:15 38° 50° (NE) 06:38:02 435.950
XW-2B 26 Jun 06:30:30 06:31:55 12° 90° (E) 06:33:20 145.730 - 145.750
STRAND 1 26 Jun 06:37:24 06:40:39 17° 60° (ENE) 06:43:54 437.568
KKS-1 26 Jun 06:38:25 06:41:04 15° 268° (W) 06:43:44 437.445
XW-2C 26 Jun 06:44:58 06:47:36 18° 93° (E) 06:50:14 145.795 - 145.815
O/OREOS (USA 219) 26 Jun 06:49:07 06:52:09 18° 53° (NE) 06:55:11 437.305
DOVE 4 26 Jun 06:53:28 06:58:20 60° 100° (E) 07:03:26 437.250
KAITUO 1B 26 Jun 06:57:38 07:00:21 19° 94° (E) 07:03:04 145.475/437.950
CUTE-I 26 Jun 06:58:14 07:02:45 27° 94° (E) 07:07:14 437.470
NO-84 26 Jun 06:58:58 07:01:24 15° 237° (WSW) 07:03:46 435.350 FM
STARS 26 Jun 07:06:05 07:09:04 18° 267° (W) 07:12:04 437.465
BEESAT 3 26 Jun 07:07:57 07:11:32 31° 244° (WSW) 07:15:03 437.485
AO-85 26 Jun 07:30:20 07:32:16 13° 250° (WSW) 07:34:15 145.980
NUDT-PHONESAT 26 Jun 07:31:49 07:35:27 50° 100° (E) 07:39:01 437.300
CUTE 1.7 + AOD 2 26 Jun 07:33:09 07:33:53 10° 88° (E) 07:34:35 437.475
YUBILEINY 26 Jun 07:37:20 07:40:57 13° 53° (NE) 07:44:31 435.215
HO-68 26 Jun 07:40:16 07:45:38 22° 91° (E) 07:50:57 435.675
XW-2F 26 Jun 07:49:12 07:52:57 75° 284° (WNW) 07:56:40 145.980 - 146.000
XW-2D 26 Jun 07:53:40 07:57:24 60° 285° (WNW) 08:01:05 145.860 - 145.880
XW-2B 26 Jun 08:02:45 08:06:24 48° 286° (WNW) 08:10:01 145.730 - 145.750
LilacSat-2 26 Jun 08:02:47 08:06:26 45° 287° (WNW) 08:10:02 437.200
AO-7 26 Jun 08:06:52 08:10:20 13° 319° (NW) 08:13:49 .
BEESAT 2 26 Jun 08:08:40 08:11:47 21° 247° (WSW) 08:14:51 435.950
XW-2A 26 Jun 08:12:46 08:15:12 18° 94° (E) 08:17:36 145.665 - 145.685
STRAND 1 26 Jun 08:14:09 08:19:16 68° 258° (WSW) 08:24:25 437.568
XW-2C 26 Jun 08:18:31 08:21:52 31° 289° (WNW) 08:25:12 145.795 - 145.815
RS-15 26 Jun 08:19:34 08:30:14 40° 254° (WSW) 08:40:28 29.354- 29.394
UWE-3 26 Jun 08:22:05 08:24:00 12° 88° (E) 08:25:53 435.000/436.395/437.385
O/OREOS (USA 219) 26 Jun 08:27:32 08:31:54 54° 252° (WSW) 08:36:15 437.305
KAITUO 1B 26 Jun 08:31:10 08:34:23 28° 290° (WNW) 08:37:34 145.475/437.950
DOVE 4 26 Jun 08:32:18 08:35:36 18° 296° (WNW) 08:39:00 437.250
CUTE-I 26 Jun 08:37:52 08:42:55 42° 292° (WNW) 08:47:56 437.470
SEEDS 26 Jun 08:47:19 08:51:19 45° 99° (E) 08:55:19 437.485
Tancredo 1 26 Jun 09:01:00 09:04:02 84° 143° (SE) 09:07:04 437.200
CUTE 1.7 + AOD 2 26 Jun 09:05:59 09:10:11 69° 284° (WNW) 09:14:20 437.475
NUDT-PHONESAT 26 Jun 09:07:23 09:08:54 12° 296° (WNW) 09:10:24 437.300
TIGRISAT 26 Jun 09:13:58 09:16:13 14° 61° (ENE) 09:18:29 435.000
AO-73 26 Jun 09:14:53 09:18:22 22° 93° (E) 09:21:46 145.935
CUBEBUG 2 26 Jun 09:24:01 09:28:46 88° 283° (WNW) 09:33:22 437.445
FO-29 26 Jun 09:26:40 09:32:13 35° 63° (ENE) 09:38:24 435.910
HO-68 26 Jun 09:26:48 09:33:58 72° 290° (WNW) 09:41:05 435.675
ISS 26 Jun 09:28:00 09:31:16 75° 145° (SE) 09:34:33 437.550
YUBILEINY 26 Jun 09:31:10 09:39:55 61° 77° (ENE) 09:48:35 435.215
AAUSAT CUBESAT 2 26 Jun 09:36:09 09:40:17 77° 102° (ESE) 09:44:23 437.432
Oscar 11 26 Jun 09:40:52 09:44:44 31° 96° (E) 09:48:34 .
XW-2A 26 Jun 09:45:05 09:47:55 25° 290° (WNW) 09:50:45 145.665 - 145.685
ZACube-1 26 Jun 09:49:41 09:54:08 59° 100° (E) 09:58:25 437.345
UNISAT 6 26 Jun 09:53:59 09:58:09 34° 69° (ENE) 10:02:23 437.425
UWE-3 26 Jun 09:56:21 10:00:56 67° 285° (WNW) 10:05:23 435.000/436.395/437.385
M-CUBED/EXP-1 PRIME 26 Jun 10:05:14 10:08:29 59° 254° (WSW) 10:11:42 437.505
EO-88 26 Jun 10:12:38 10:13:00 10° 90° (E) 10:13:21 145.990 - 145.960
SEEDS 26 Jun 10:24:02 10:26:39 16° 295° (WNW) 10:29:16 437.485
PRISM 26 Jun 10:26:37 10:30:40 77° 75° (ENE) 10:34:44 437.425
Tancredo 1 26 Jun 10:37:28 10:39:55 22° 344° (NNW) 10:42:22 437.200
TIGRISAT 26 Jun 10:47:39 10:52:15 74° 257° (WSW) 10:56:57 435.000
AO-73 26 Jun 10:50:38 10:54:41 35° 290° (WNW) 10:58:37 145.935
DELFI C3 26 Jun 10:56:02 10:59:56 57° 101° (E) 11:03:49 145.870
CUBEBUG 2 26 Jun 11:03:18 11:04:34 11° 301° (WNW) 11:05:51 437.445
ISS 26 Jun 11:05:14 11:08:01 25° 343° (NNW) 11:10:49 437.550
EO-79 26 Jun 11:10:16 11:12:33 14° 63° (ENE) 11:14:51 145.935-145.965
FO-29 26 Jun 11:11:22 11:17:06 43° 265° (W) 11:23:36 435.910
AAUSAT CUBESAT 2 26 Jun 11:14:27 11:15:07 10° 299° (WNW) 11:15:46 437.432
HO-68 26 Jun 11:16:35 11:20:28 16° 310° (NW) 11:24:21 435.675
Oscar 11 26 Jun 11:17:15 11:20:43 24° 293° (WNW) 11:24:10 .
DUCHIFAT 1 26 Jun 11:22:58 11:25:31 16° 63° (ENE) 11:28:04 145.980
ZACube-1 26 Jun 11:27:22 11:29:53 15° 298° (WNW) 11:32:22 437.345
YUBILEINY 26 Jun 11:28:48 11:36:07 30° 278° (W) 11:43:23 435.215
UNISAT 6 26 Jun 11:31:05 11:34:53 25° 266° (W) 11:38:46 437.425
NANOSAT C BR1 26 Jun 11:31:11 11:34:23 21° 66° (ENE) 11:37:36 145.865
EO-88 26 Jun 11:43:26 11:46:59 52° 286° (WNW) 11:50:32 145.990 - 145.960
LO-87 26 Jun 12:03:29 12:06:46 31° 97° (E) 12:10:02 145.935 - 145.965
ESTCUBE 1 26 Jun 12:07:14 12:10:45 22° 94° (E) 12:14:15 437.505/2401.250
POLYITAN 1 26 Jun 12:08:31 12:12:42 57° 73° (ENE) 12:16:56 437.675
AIST 2D 26 Jun 12:08:39 12:12:09 61° 259° (W) 12:15:41 435.315
Tancredo 1 26 Jun 12:14:14 12:16:16 16° 4° (N) 12:18:19 437.200
QB50P2 26 Jun 12:19:20 12:23:35 83° 75° (ENE) 12:27:53 145.880/145.840
BUGSAT 1 26 Jun 12:28:40 12:31:59 24° 67° (ENE) 12:35:21 437.445
DELFI C3 26 Jun 12:32:34 12:34:14 12° 297° (WNW) 12:35:53 145.870
PCSat 26 Jun 12:36:00 12:41:18 60° 116° (ESE) 12:46:40 145.827
Gurwin Techsat 1B 26 Jun 12:38:08 12:38:20 10° 55° (NE) 12:38:32 435.225
ISS 26 Jun 12:42:56 12:45:19 18° 4° (N) 12:47:41 437.550
EO-79 26 Jun 12:43:38 12:47:49 58° 259° (W) 12:52:04 145.935-145.965
DUCHIFAT 1 26 Jun 12:56:39 13:00:46 51° 260° (W) 13:04:55 145.980
NANOSAT C BR1 26 Jun 13:05:57 13:09:51 36° 262° (W) 13:13:49 145.865
Oscar 19 26 Jun 13:12:10 13:16:39 31° 66° (ENE) 13:21:08 437.125/150
50 SAT 26 Jun 13:18:35 13:19:20 11° 91° (E) 13:20:06 437.505
AO-7 26 Jun 13:31:40 13:35:37 14° 42° (NE) 13:39:34 .
LO-87 26 Jun 13:37:30 13:39:58 18° 293° (WNW) 13:42:27 145.935 - 145.965
VELOX 1 26 Jun 13:40:46 13:45:06 51° 100° (E) 13:49:26 145.980
ESTCUBE 1 26 Jun 13:43:32 13:47:38 36° 290° (WNW) 13:51:43 437.505/2401.250
POLYITAN 1 26 Jun 13:46:50 13:48:51 13° 270° (W) 13:50:52 437.675
Tancredo 1 26 Jun 13:49:40 13:52:30 34° 24° (NNE) 13:55:20 437.200
SPROUT 26 Jun 13:54:53 13:59:14 84° 105° (ESE) 14:03:31 437.525
DX 1 26 Jun 13:57:50 14:01:28 25° 95° (E) 14:05:07 434.975-435.025
BUGSAT 1 26 Jun 14:03:31 14:07:11 30° 264° (W) 14:10:55 437.445
Gurwin Techsat 1B 26 Jun 14:12:01 14:17:17 68° 72° (ENE) 14:22:34 435.225
UKube-1 26 Jun 14:13:04 14:16:39 25° 95° (E) 14:20:14 .
ISS 26 Jun 14:19:24 14:22:29 35° 24° (NNE) 14:25:33 437.550
PCSat 26 Jun 14:20:42 14:25:06 24° 315° (NW) 14:29:32 145.827
SO-50 26 Jun 14:28:21 14:32:32 37° 116° (ESE) 14:36:42 436.795
50 SAT 26 Jun 14:49:06 14:52:22 43° 287° (WNW) 14:55:37 437.505
Oscar 19 26 Jun 14:51:14 14:55:53 34° 263° (W) 15:00:34 437.125/150
VELOX 1 26 Jun 15:18:19 15:21:09 17° 297° (WNW) 15:23:59 145.980
AO-7 26 Jun 15:18:33 15:26:35 57° 64° (ENE) 15:34:42 .
Tancredo 1 26 Jun 15:25:18 15:28:04 31° 221° (SW) 15:30:48 437.200
ITAMSAT 1 26 Jun 15:30:14 15:35:13 48° 70° (ENE) 15:40:14 435.822/435.867
SPROUT 26 Jun 15:33:38 15:34:27 10° 300° (WNW) 15:35:16 437.525
DX 1 26 Jun 15:33:49 15:37:38 30° 292° (WNW) 15:41:28 434.975-435.025
UKube-1 26 Jun 15:48:52 15:52:40 30° 292° (WNW) 15:56:27 .
ITUPSAT 1 26 Jun 15:52:30 15:56:37 28° 95° (E) 16:00:42 437.325
Gurwin Techsat 1B 26 Jun 15:54:31 15:57:43 16° 270° (W) 16:00:54 435.225
ISS 26 Jun 15:55:54 15:58:58 36° 221° (SW) 16:02:02 437.550
BEESAT 26 Jun 16:01:37 16:06:00 35° 98° (E) 16:10:21 436.000
SO-50 26 Jun 16:09:04 16:13:02 29° 314° (NW) 16:17:02 436.795
MOZHAYETS 4 26 Jun 17:00:21 17:04:58 87° 282° (WNW) 17:09:32
ITAMSAT 1 26 Jun 17:10:57 17:14:55 22° 267° (W) 17:18:55 435.822/435.867
AO-7 26 Jun 17:12:17 17:19:39 35° 263° (W) 17:27:06 .
XW-2C 26 Jun 17:28:33 17:29:51 11° 63° (ENE) 17:31:08 145.795 - 145.815
ITUPSAT 1 26 Jun 17:30:09 17:34:26 33° 292° (WNW) 17:38:41 437.325
BEESAT 26 Jun 17:39:38 17:43:37 27° 294° (WNW) 17:47:34 436.000
KAITUO 1B 26 Jun 17:39:53 17:41:16 12° 64° (ENE) 17:42:39 145.475/437.950
CUBESAT XI-V 26 Jun 17:44:09 17:48:39 51° 100° (E) 17:53:07 437.345
DOVE 4 26 Jun 18:00:11 18:04:17 60° 74° (ENE) 18:08:32 437.250
HO-68 26 Jun 18:11:02 18:15:58 20° 54° (NE) 18:20:53 435.675
NUDT-PHONESAT 26 Jun 18:11:57 18:15:07 26° 69° (ENE) 18:18:17 437.300
CUTE-I 26 Jun 18:20:43 18:25:48 47° 69° (ENE) 18:30:55 437.470
KKS-1 26 Jun 18:26:00 18:30:32 88° 276° (W) 18:35:01 437.445
XW-2F 26 Jun 18:30:23 18:34:08 55° 75° (ENE) 18:37:53 145.980 - 146.000
XW-2D 26 Jun 18:35:07 18:38:56 69° 75° (ENE) 18:42:45 145.860 - 145.880
MOZHAYETS 4 26 Jun 18:40:41 18:41:20 10° 302° (WNW) 18:42:00
XW-2B 26 Jun 18:44:08 18:47:58 86° 77° (ENE) 18:51:49 145.730 - 145.750
LilacSat-2 26 Jun 18:44:45 18:48:37 87° 252° (WSW) 18:52:30 437.200
CUBEBUG 2 26 Jun 18:50:20 18:51:01 10° 58° (ENE) 18:51:41 437.445
STARS 26 Jun 18:52:32 18:57:00 76° 103° (ESE) 19:01:25 437.465
XW-2C 26 Jun 18:59:44 19:03:32 59° 260° (W) 19:07:21 145.795 - 145.815
KAITUO 1B 26 Jun 19:11:05 19:14:47 55° 259° (W) 19:18:32 145.475/437.950
UWE-3 26 Jun 19:20:04 19:22:08 13° 60° (ENE) 19:24:11 435.000/436.395/437.385
CUBESAT XI-V 26 Jun 19:22:33 19:25:37 18° 296° (WNW) 19:28:41 437.345
SEEDS 26 Jun 19:39:37 19:43:25 35° 71° (ENE) 19:47:14 437.485
DOVE 4 26 Jun 19:40:58 19:42:28 12° 272° (W) 19:43:58 437.250
PCSat 26 Jun 19:41:14 19:43:42 13° 34° (NE) 19:46:08 145.827
NUDT-PHONESAT 26 Jun 19:46:01 19:48:59 22° 266° (W) 19:51:57 437.300
HO-68 26 Jun 19:55:34 20:02:46 88° 253° (WSW) 20:10:02 435.675
CUTE 1.7 + AOD 2 26 Jun 19:58:53 20:03:08 89° 263° (W) 20:07:23 437.475
CUTE-I 26 Jun 20:01:52 20:06:03 23° 267° (W) 20:10:17 437.470
AO-85 26 Jun 20:05:24 20:07:45 15° 112° (ESE) 20:10:04 145.980
KKS-1 26 Jun 20:05:40 20:06:20 10° 302° (WNW) 20:07:00 437.445
XW-2F 26 Jun 20:07:37 20:08:35 11° 270° (W) 20:09:34 145.980 - 146.000
AO-73 26 Jun 20:11:03 20:14:27 21° 65° (ENE) 20:17:53 145.935
XW-2A 26 Jun 20:16:10 20:19:35 69° 259° (W) 20:23:02 145.665 - 145.685
CUBEBUG 2 26 Jun 20:22:10 20:26:46 83° 78° (ENE) 20:31:32 437.445
STRAND 1 26 Jun 20:23:51 20:28:40 38° 98° (E) 20:33:26 437.568
AAUSAT CUBESAT 2 26 Jun 20:26:40 20:30:41 54° 74° (ENE) 20:34:43 437.432
RS-15 26 Jun 20:30:47 20:41:23 38° 105° (ESE) 20:52:09 29.354- 29.394
STARS 26 Jun 20:30:56 20:32:43 12° 300° (WNW) 20:34:28 437.465
Oscar 11 26 Jun 20:36:25 20:40:07 28° 68° (ENE) 20:43:49 .
YUBILEINY 26 Jun 20:43:05 20:46:20 12° 72° (ENE) 20:49:34 435.215
ZACube-1 26 Jun 20:45:37 20:50:01 51° 72° (ENE) 20:54:29 437.345
UWE-3 26 Jun 20:53:18 20:57:54 78° 258° (WSW) 21:02:36 435.000/436.395/437.385
BEESAT 3 26 Jun 20:58:00 21:01:30 31° 115° (ESE) 21:05:04 437.485
O/OREOS (USA 219) 26 Jun 21:03:21 21:05:58 15° 99° (E) 21:08:33 437.305
SEEDS 26 Jun 21:16:03 21:19:12 20° 267° (W) 21:22:20 437.485
PCSat 26 Jun 21:22:54 21:28:17 58° 56° (NE) 21:33:37 145.827
DELFI C3 26 Jun 21:42:08 21:45:42 35° 71° (ENE) 21:49:17 145.870
AO-85 26 Jun 21:43:49 21:47:45 50° 307° (NW) 21:51:36 145.980
AO-73 26 Jun 21:46:05 21:50:23 42° 262° (W) 21:54:45 145.935
HO-68 26 Jun 21:47:15 21:51:25 16° 271° (W) 21:55:37 435.675
BEESAT 2 26 Jun 21:59:29 22:03:19 49° 119° (ESE) 22:07:14 435.950
CUBEBUG 2 26 Jun 22:03:13 22:04:01 10° 273° (W) 22:04:48 437.445
STRAND 1 26 Jun 22:03:20 22:07:40 28° 295° (WNW) 22:11:58 437.568
AAUSAT CUBESAT 2 26 Jun 22:04:35 22:06:28 13° 270° (W) 22:08:21 437.432
Oscar 11 26 Jun 22:12:28 22:16:11 27° 265° (W) 22:19:55 .
NO-84 26 Jun 22:14:12 22:18:02 66° 136° (SE) 22:22:12 435.350 FM
FO-29 26 Jun 22:18:48 22:25:47 34° 93° (E) 22:32:38 435.910
EO-88 26 Jun 22:21:25 22:25:04 70° 76° (ENE) 22:28:44 145.990 - 145.960
ZACube-1 26 Jun 22:23:38 22:26:35 17° 269° (W) 22:29:33 437.345
YUBILEINY 26 Jun 22:32:37 22:41:18 68° 93° (E) 22:50:04 435.215
BEESAT 3 26 Jun 22:35:37 22:39:04 27° 313° (NW) 22:42:34 437.485
TIGRISAT 26 Jun 22:38:58 22:42:37 23° 93° (E) 22:46:12 435.000
O/OREOS (USA 219) 26 Jun 22:40:25 22:44:53 55° 296° (WNW) 22:49:20 437.305
RS-15 26 Jun 22:40:52 22:53:04 71° 308° (NW) 23:05:29 29.354- 29.394
LO-87 26 Jun 22:41:20 22:43:28 15° 66° (ENE) 22:45:38 145.935 - 145.965
SO-50 26 Jun 22:58:21 23:02:43 43° 50° (NE) 23:07:03 436.795
